Location: Naloco
(16.5478°S, 37.1017°E)
Time: 01:21:42
(UTC+00:00)

Cosmos 614 Rocket - Pass Details

Date: 13 August 2020
Orbit: 733 x 764 km, 74.1° (Epoch: 23 September)

Event Time Altitude Azimuth Distance (km) Brightness Sun altitude
Rises 15:44:28 0° 194° (SSW) 3,177 7.2 -5.9°
Reaches altitude 10° 15:46:49 10° 193° (SSW) 2,251 6.5 -6.5°
Maximum altitude 15:51:55 90° 268° (W) 745 4.0 -7.7°
Drops below altitude 10° 15:57:01 10° 13° (NNE) 2,246 6.4 -8.9°
Sets 15:59:21 0° 13° (NNE) 3,168 7.2 -9.4°
